KE7YUP Weather Reports


Display with metric or nautical units.
time (UTC)temp
F
wind
direction
speed
MPH
gust
MPH
rain 1hr
in
rain 24hr
in
rain mn
in
humidity
%
barometer
mb
20260504045815 64 321 6.0 10.0 0.00 0.00 0.00 25 1013.0
20260504044815 63 312 6.0 9.0 0.00 0.00 0.00 25 1013.0
20260504043815 63 311 8.0 10.0 0.00 0.00 0.00 26 1013.1
20260504042816 63 302 7.0 10.0 0.00 0.00 0.00 27 1012.5
20260504041836 63 310 4.0 7.0 0.00 0.00 0.00 26 1012.5
20260504040856 64 349 2.0 3.0 0.00 0.00 0.00 26 1012.8
20260504035815 64 322 6.0 9.0 0.00 0.00 0.00 25 1012.1
20260504034815 64 318 8.0 10.0 0.00 0.00 0.00 25 1012.1
20260504033815 65 0.0 0.0 0.00 0.00 0.00 24 1012.4
20260504032835 66 172 0.0 1.0 0.00 0.00 0.00 24 1012.5
20260504031815 68 159 3.0 6.0 0.00 0.00 0.00 22 1012.6
20260504030815 68 15 4.0 8.0 0.00 0.00 0.00 21 1012.5
20260504025815 68 354 10.0 22.0 0.00 0.00 0.00 19 1011.8
20260504024815 68 357 4.0 6.0 0.00 0.00 0.00 21 1012.1
20260504023815 68 4 3.0 7.0 0.00 0.00 0.00 21 1011.9
20260504022815 68 346 3.0 5.0 0.00 0.00 0.00 21 1011.6
20260504021815 68 359 7.0 11.0 0.00 0.00 0.00 20 1011.6
20260504020815 69 12 2.0 4.0 0.00 0.00 0.00 20 1011.6
20260504015815 69 2 4.0 6.0 0.00 0.00 0.00 19 1012.2
20260504014815 70 41 2.0 7.0 0.00 0.00 0.00 19 1012.5
20260504013815 70 10 1.0 3.0 0.00 0.00 0.00 18 1012.7
20260504012815 70 6 6.0 9.0 0.00 0.00 0.00 18 1011.9
20260504011815 71 38 7.0 10.0 0.00 0.00 0.00 19 1012.0
20260504010815 71 353 6.0 11.0 0.00 0.00 0.00 17 1012.1
20260504005815 71 344 2.0 5.0 0.00 0.00 0.00 17 1012.3
20260504004815 71 271 2.0 4.0 0.00 0.00 0.00 18 1012.4
20260504003815 71 154 1.0 2.0 0.00 0.00 0.00 16 1012.5
20260504002815 71 234 6.0 13.0 0.00 0.00 0.00 17 1013.1
20260504001815 71 208 12.0 18.0 0.00 0.00 0.00 17 1013.3
20260504000815 72 152 1.0 4.0 0.00 0.00 0.00 15 1013.4
20260503235815 72 164 4.0 6.0 0.00 0.00 0.00 16 1013.0
20260503234835 73 147 3.0 5.0 0.00 0.00 0.00 15 1013.3
20260503233815 73 166 3.0 6.0 0.00 0.00 0.00 15 1013.3
20260503232815 73 143 3.0 8.0 0.00 0.00 0.00 16 1013.2
20260503231815 73 90 3.0 9.0 0.00 0.00 0.00 15 1013.2
20260503230835 73 111 4.0 9.0 0.00 0.00 0.00 15 1013.3
20260503225817 73 72 3.0 6.0 0.00 0.00 0.00 15 1013.4
20260503224817 73 126 5.0 9.0 0.00 0.00 0.00 15 1013.4
20260503223817 73 94 7.0 12.0 0.00 0.00 0.00 15 1013.6
20260503222817 72 94 7.0 11.0 0.00 0.00 0.00 15 1013.7
20260503221817 72 93 4.0 8.0 0.00 0.00 0.00 16 1013.9
20260503220817 72 110 5.0 9.0 0.00 0.00 0.00 15 1014.0
20260503215817 72 95 7.0 12.0 0.00 0.00 0.00 13 1014.6
20260503214817 72 103 5.0 11.0 0.00 0.00 0.00 15 1014.8
20260503213816 71 79 8.0 11.0 0.00 0.00 0.00 14 1015.0
20260503212917 72 86 6.0 11.0 0.00 0.00 0.00 16 1015.3
20260503211817 71 111 8.0 12.0 0.00 0.00 0.00 16 1015.5
20260503210817 71 88 8.0 11.0 0.00 0.00 0.00 18 1015.8
20260503205817 71 100 8.0 11.0 0.00 0.00 0.00 17 1016.4
20260503204817 71 115 5.0 10.0 0.00 0.00 0.00 18 1016.6
20260503203817 70 97 5.0 11.0 0.00 0.00 0.00 17 1016.5
20260503202817 70 151 7.0 11.0 0.00 0.00 0.00 20 1016.6
20260503201817 70 113 6.0 10.0 0.00 0.00 0.00 21 1016.9
20260503200816 70 154 6.0 9.0 0.00 0.00 0.00 21 1017.1
20260503195837 70 96 8.0 12.0 0.00 0.00 0.00 21 1017.2
20260503194817 70 109 5.0 10.0 0.00 0.00 0.00 21 1017.4
20260503193816 69 135 6.0 9.0 0.00 0.00 0.00 21 1017.0
20260503192817 70 114 6.0 8.0 0.00 0.00 0.00 22 1017.5
20260503191816 69 142 6.0 9.0 0.00 0.00 0.00 22 1017.6
20260503190816 70 90 4.0 8.0 0.00 0.00 0.00 23 1017.8
20260503185816 69 89 7.0 10.0 0.00 0.00 0.00 24 1018.0
20260503184816 68 110 2.0 9.0 0.00 0.00 0.00 24 1017.8
20260503183817 68 61 4.0 8.0 0.00 0.00 0.00 24 1017.9
20260503182816 68 73 4.0 7.0 0.00 0.00 0.00 26 1018.7
20260503181816 67 123 4.0 7.0 0.00 0.00 0.00 27 1018.6
20260503180816 67 168 2.0 6.0 0.00 0.00 0.00 26 1018.7
20260503175816 67 95 4.0 7.0 0.00 0.00 0.00 25 1019.7
20260503174817 68 134 5.0 7.0 0.00 0.00 0.00 26 1019.8
20260503173816 68 134 2.0 4.0 0.00 0.00 0.00 24 1019.8
20260503172816 68 106 6.0 10.0 0.00 0.00 0.00 24 1020.2
20260503171816 68 89 3.0 4.0 0.00 0.00 0.00 25 1020.4
20260503170816 66 183 2.0 7.0 0.00 0.00 0.00 25 1020.4
20260503150816 57 83 3.0 5.0 0.00 0.00 0.00 43 1019.7
20260503130816 52 295 3.0 8.0 0.00 0.00 0.00 39 1018.9
20260503110816 51 336 2.0 6.0 0.00 0.00 0.00 45 1019.5
20260503080815 54 331 4.0 8.0 0.00 0.00 0.00 34 1020.1
20260503072817 55 338 2.0 3.0 0.00 0.00 0.00 34 1020.2
20260503071815 55 338 1.0 2.0 0.00 0.00 0.00 33 1020.2
20260503070817 55 338 3.0 4.0 0.00 0.00 0.00 34 1020.2
20260503054857 63 119 2.0 7.0 0.00 0.00 0.00 27 1020.3
20260503053816 63 336 11.0 16.0 0.00 0.00 0.00 23 1020.1
20260503052816 63 332 10.0 14.0 0.00 0.00 0.00 23 1020.0
20260503051816 64 337 8.0 13.0 0.00 0.00 0.00 22 1020.1
20260503050816 64 332 11.0 15.0 0.00 0.00 0.00 23 1020.1